Redmond, OR

6:19 AM PST on December 11, 2017 (GMT -0800)
Roberts Field Airport

Weather History for KRDM - April, 2014

Change the Weather History Date:

Thursday, April 17, 2014

  Actual Average Record
Temperature  
Mean Temperature 46 °F 44 °F  
Max Temperature 51 °F 60 °F 82 °F (1999)
Min Temperature 40 °F 29 °F 11 °F (1964)
Degree Days  
Heating Degree Days 19 21  
Month to date heating degree days 332 371  
Since 1 July heating degree days 5846 5822  
Cooling Degree Days 0 0  
Month to date cooling degree days 0 0  
Year to date cooling degree days 0 0  
Moisture  
Dew Point 38 °F    
Average Humidity 71    
Maximum Humidity 80    
Minimum Humidity 61    
Precipitation  
Precipitation 0.05 in 0.02 in 0.43 in (1967)
Month to date precipitation 0.34 0.38  
Year to date precipitation 2.85 2.66  
Sea Level Pressure  
Sea Level Pressure 29.88 in    
Wind  
Wind Speed 5 mph (NNW)    
Max Wind Speed 13 mph    
Max Gust Speed 17 mph    
Visibility 10 miles    
Events Rain    
T = Trace of Precipitation, MM = Missing Value Source: NWS Daily Summary

Daily Weather History Graph

Daily Weather History Graph

Search for Another Location

Airport or City:

Trip Planner

Search our weather history database for the weather conditions in past years. The results will help you decide how hot, cold, wet, or windy it might be!

Date:

Astronomy

Apr. 17, 2014 Rise Set
Actual Time 6:17 AM PDT 7:51 PM PDT
Civil Twilight 5:47 AM PDT 8:22 PM PDT
Nautical Twilight 5:10 AM PDT 8:59 PM PDT
Astronomical Twilight 4:30 AM PDT 9:38 PM PDT
Moon 10:47 PM PDT (4/17) 7:49 AM PDT (4/17)
Length of Visible Light 14h 34m
Length of Day
13h 34m
Waning Gibbous, 93% of the Moon is Illuminated
Apr 17
Waning Gibbous
Apr 22
Last Quarter
Apr 28
New
May 6
First Quarter
May 14
Full

Hourly Weather History & Observations

Time (PDT) Temp. Windchill Dew Point Humidity Pressure Visibility Wind Dir Wind Speed Gust Speed Precip Events Conditions
12:56 AM 44.1 °F - 36.0 °F 73% 29.97 in 10.0 mi Calm Calm - N/A   Partly Cloudy
1:56 AM 44.1 °F 41.5 °F 36.0 °F 73% 29.94 in 10.0 mi ESE 4.6 mph - N/A   Clear
2:56 AM 43.0 °F - 35.1 °F 74% 29.92 in 10.0 mi Calm Calm - N/A   Scattered Clouds
3:56 AM 42.1 °F 39.2 °F 34.0 °F 73% 29.90 in 10.0 mi SSW 4.6 mph - N/A   Clear
4:56 AM 43.0 °F - 35.1 °F 74% 29.88 in 10.0 mi Calm Calm - N/A   Scattered Clouds
5:56 AM 43.0 °F - 35.1 °F 74% 29.86 in 10.0 mi Calm Calm - N/A   Overcast
6:56 AM 43.0 °F - 36.0 °F 76% 29.86 in 10.0 mi Calm Calm - N/A   Mostly Cloudy
7:56 AM 46.0 °F - 37.0 °F 71% 29.85 in 10.0 mi Calm Calm - N/A   Overcast
10:56 AM 48.9 °F - 42.1 °F 77% 29.84 in 10.0 mi NNW 6.9 mph - 0.00 in   Overcast
11:20 AM 48.0 °F - 43.0 °F 83% 29.85 in 10.0 mi NW 10.4 mph - 0.00 in Rain Light Rain
11:56 AM 48.0 °F - 43.0 °F 83% 29.85 in 9.0 mi NNW 9.2 mph - 0.01 in Rain Light Rain
12:52 PM 48.2 °F - 44.6 °F 87% 29.85 in 10.0 mi WNW 6.9 mph - 0.00 in Rain Light Rain
12:56 PM 48.9 °F - 43.0 °F 80% 29.86 in 10.0 mi WNW 6.9 mph - 0.00 in Rain Light Rain
1:56 PM 48.9 °F - 43.0 °F 80% 29.86 in 10.0 mi NW 6.9 mph - 0.01 in Rain Light Rain
2:56 PM 48.0 °F - 41.0 °F 77% 29.87 in 7.0 mi Calm Calm - 0.02 in Rain Light Rain
3:56 PM 48.9 °F - 41.0 °F 74% 29.86 in 10.0 mi North 3.5 mph - 0.01 in Rain Light Rain
4:52 PM 50.0 °F - 37.4 °F 62% 29.86 in 10.0 mi Variable 3.5 mph - 0.00 in   Scattered Clouds
4:56 PM 51.1 °F - 39.0 °F 63% 29.86 in 10.0 mi NNE 4.6 mph - 0.00 in   Mostly Cloudy
5:56 PM 50.0 °F - 37.0 °F 61% 29.86 in 10.0 mi North 6.9 mph - N/A   Mostly Cloudy
6:56 PM 48.9 °F - 37.0 °F 64% 29.87 in 10.0 mi North 4.6 mph - N/A   Overcast
7:56 PM 46.9 °F - 37.9 °F 71% 29.88 in 10.0 mi East 4.6 mph - 0.00 in   Overcast
8:56 PM 45.0 °F 41.8 °F 37.9 °F 76% 29.89 in 10.0 mi East 5.8 mph - N/A   Partly Cloudy
9:56 PM 46.0 °F 41.4 °F 35.1 °F 66% 29.91 in 10.0 mi WNW 9.2 mph - N/A   Partly Cloudy
10:56 PM 45.0 °F 40.1 °F 34.0 °F 65% 29.91 in 10.0 mi WNW 9.2 mph - N/A   Clear
11:56 PM 42.1 °F 39.2 °F 33.1 °F 70% 29.94 in 10.0 mi West 4.6 mph - N/A   Clear